[[{"header":{"parameterUnit":"m.s-1","parameterCategory":1,"la1":30.2991,"la2":30.254,"lo1":-89.0895,"lo2":-89.0444,"dy":0.0017,"dx":0.0017,"nx":28,"ny":28,"refTime":"2024-04-14T21:00:00:Z","depth":0,"parameterNumber":2,"parameterNumberName":"U-component_of_WINDS"},"data":[0,0,0,0,0,0,0,0,0,0,0,0,0,0,0,0,0,0,0,0,0,0,0,0,0,0,0,0,0,0,0,0,0,0,0,0,0,0,0,0,0,0,0,0,0,0,0,0,0,0,0,0,0,0,0,0,0,0,-6.3288,-6.3289,0,-6.3339,-6.334,-6.334,-6.326,-6.3257,-6.3254,-6.3252,-6.33,-6.3304,-6.3308,0,0,0,0,0,0,0,0,0,0,0,0,0,-6.3119,-6.3123,-6.3288,-6.3289,-6.329,-6.3339,-6.334,-6.3341,-6.326,-6.3257,-6.3254,-6.3251,-6.3299,-6.3304,-6.3308,0,0,0,0,0,0,0,0,0,0,0,0,0,-6.3184,-6.3124,-6.3288,-6.3256,-6.3253,-6.3339,-6.334,-6.3341,-6.3261,-6.3257,-6.3253,-6.3249,-6.3297,-6.3303,-6.3309,-6.3428,0,0,-6.3327,-6.3329,0,0,0,0,0,0,0,0,-6.318,-6.319,-6.326,-6.3258,-6.3256,-6.3289,-6.3298,-6.337,-6.3262,-6.3258,-6.3252,-6.3247,-6.33,-6.3305,-6.3324,-6.343,-6.3432,-6.3327,-6.3331,-6.3333,-6.3335,0,0,0,0,0,0,0,-6.3176,-6.3187,-6.3308,-6.3261,-6.3258,-6.3238,-6.3242,-6.3311,-6.3301,-6.3258,-6.3252,-6.326,-6.3298,-6.3318,-6.3324,-6.3433,-6.3327,-6.3332,-6.3336,-6.3338,-6.3639,-6.3643,0,0,0,0,0,0,-6.3176,-6.3184,-6.3307,-6.331,-6.3207,-6.3244,-6.3249,-6.3282,-6.33,-6.3299,-6.3263,-6.3256,-6.331,-6.3317,-6.3325,-6.3465,-6.3333,-6.3338,-6.3342,-6.3635,-6.364,-6.3645,0,0,0,0,0,0,-6.3172,-6.3187,-6.3305,-6.3246,-6.3259,-6.3252,-6.3289,-6.3286,-6.3306,-6.3304,-6.3302,-6.3286,-6.3307,-6.3317,-6.3403,-6.3465,-6.3341,-6.3346,-6.3629,-6.3636,-6.3643,-6.3745,0,0,0,0,0,0,-6.3168,-6.3187,-6.3232,-6.3247,-6.3262,-6.3382,-6.3293,-6.329,-6.3317,-6.3307,-6.3325,-6.3324,-6.3305,-6.3395,-6.3409,-6.3471,-6.3351,-6.3624,-6.3632,-6.364,-6.3736,-6.3754,-6.377,0,0,0,0,0,-6.3162,-6.3258,-6.3235,-6.325,-6.3319,-6.3386,-6.3394,-6.3371,-6.3322,-6.3367,-6.3366,-6.3323,-6.3457,-6.3404,-6.3419,-6.3484,-6.3619,-6.363,-6.364,-6.3728,-6.3751,-6.377,0,0,0,0,0,0,-6.3248,-6.3259,-6.3233,-6.3337,-6.3362,-6.3372,-6.3428,-6.3396,-6.3434,-6.3423,-6.3392,-6.3397,-6.3489,-6.3496,-6.3437,-6.36,-6.353,-6.3544,-6.3592,-6.3613,-6.363,-6.3625,-6.3356,0,0,0,0,0,-6.328,-6.3334,-6.3341,-6.3432,-6.3445,-6.3435,-6.3463,-6.3444,-6.3467,-6.3477,-6.3482,-6.3505,-6.3552,-6.3584,-6.3627,-6.3738,-6.374,-6.379,-6.3807,-6.3821,-6.3832,-6.3891,-6.3912,-6.3678,-6.3678,-6.3678,0,0,-6.3344,-6.3357,-6.3393,-6.3449,-6.3466,-6.3522,-6.3444,-6.3506,-6.3547,-6.3485,-6.3566,-6.3572,-6.3596,-6.3695,-6.3738,-6.3703,-6.3898,-6.3834,-6.3846,-6.3849,-6.3903,-6.3925,-6.3945,-6.3685,-6.3684,-6.3683,0,0,-6.349,-6.3506,-6.3583,-6.3602,-6.3629,-6.3622,-6.3641,-6.3658,-6.3659,-6.3741,-6.3696,-6.3744,-6.3826,-6.3845,-6.3865,-6.4022,-6.3983,-6.4037,-6.4125,-6.4182,-6.4201,-6.4217,-6.4271,-6.4291,-6.4049,-6.4049,-6.405,0,-6.3565,-6.3649,-6.3627,-6.3693,-6.3718,-6.3668,-6.3745,-6.3765,-6.3804,-6.3822,-6.3783,-6.3886,-6.3899,-6.4,-6.4039,-6.4058,-6.4077,-6.4033,-6.42,-6.4216,-6.4231,-6.4282,-6.4302,-6.4056,-6.4055,-6.4054,-6.4054,0,-6.3741,-6.38,-6.3859,-6.39,-6.3932,-6.4004,-6.3992,-6.4028,-6.4007,-6.4004,-6.4088,-6.4102,-6.4147,-6.4171,-6.4151,-6.4271,-6.4248,-6.4206,-6.4133,-6.426,-6.4307,-6.4326,-6.4064,-6.4062,-6.406,-6.4059,0,0,-6.3937,-6.3967,-6.3989,-6.4007,-6.4035,-6.4079,-6.4149,-6.4195,-6.4226,-6.4256,-6.4312,-6.4385,-6.4346,-6.4369,-6.4351,-6.4402,-6.4523,-6.4353,-6.4353,-6.4382,-6.4654,-6.4684,-6.4707,-6.45,-6.4503,-6.4506,-6.4652,0,-6.408,-6.4201,-6.4184,-6.43,-6.4354,-6.4309,-6.4369,-6.4392,-6.4393,-6.4438,-6.4438,-6.4489,-6.4435,-6.4449,-6.4497,-6.4498,-6.4577,-6.4488,-6.4549,-6.4552,-6.4541,-6.4732,-6.4763,-6.4899,-6.467,-6.4673,-6.4676,0,-6.4262,-6.4301,-6.4422,-6.4442,-6.4464,-6.4519,-6.456,-6.4605,-6.463,-6.4627,-6.4655,-6.4628,-6.4697,-6.4628,-6.4721,-6.4661,-6.4686,-6.4691,-6.4696,-6.4697,-6.4619,-6.4736,-6.4942,-6.4961,-6.4705,-6.4702,-6.47,0,-6.439,-6.4473,-6.4556,-6.4573,-6.46,-6.4639,-6.4652,-6.4673,-6.4703,-6.4739,-6.4757,-6.4801,-6.4824,-6.4859,-6.4844,-6.4795,-6.4941,-6.487,-6.4938,-6.4938,-6.4967,-6.4964,-6.5177,-6.4989,-6.4989,-6.4989,-6.4988,0,-6.455,-6.4625,-6.4614,-6.4665,-6.4748,-6.4729,-6.4812,-6.4819,-6.4839,-6.489,-6.4855,-6.4903,-6.4883,-6.493,-6.4919,-6.4998,-6.5009,-6.5007,-6.5003,-6.5008,-6.5008,-6.5021,-6.501,-6.4994,-6.4993,-6.4992,-6.4991,0,-6.4705,-6.4701,-6.4788,-6.4807,-6.4814,-6.4874,-6.489,-6.4937,-6.4937,-6.5002,-6.5016,-6.5014,-6.5068,-6.5058,-6.5117,-6.511,-6.5207,-6.5193,-6.5199,-6.5194,-6.5262,-6.5254,-6.5487,-6.5515,-6.5313,-6.5315,-6.5316,0,-6.4805,-6.4862,-6.4889,-6.4921,-6.4937,-6.4989,-6.5019,-6.5004,-6.5037,-6.5072,-6.5115,-6.5166,-6.5205,-6.5293,-6.5296,-6.5341,-6.5325,-6.5404,-6.5331,-6.5335,-6.5323,-6.5319,-6.5323,-6.5417,-6.5419,-6.5421,-6.5423,0,-6.4982,-6.4978,-6.5024,-6.507,-6.5107,-6.5142,-6.5173,-6.5201,-6.5189,-6.5227,-6.5283,-6.5314,-6.5375,-6.5425,-6.5468,-6.548,-6.5449,-6.5446,-6.5464,-6.5468,-6.5468,-6.5466,-6.5234,-6.544,-6.5438,-6.5437,-6.5436,-6.5435,-6.5111,-6.516,-6.5186,-6.5238,-6.5261,-6.5292,-6.5337,-6.5344,-6.539,-6.5439,-6.5428,-6.549,-6.5515,-6.5569,-6.5587,-6.5634,-6.5605,-6.5631,-6.5637,-6.5643,-6.565,-6.5464,-6.5642,-6.5642,-6.5642,-6.5641,-6.5641,0,-6.5284,-6.53,-6.5348,-6.5394,-6.5435,-6.5406,-6.544,-6.5476,-6.5531,-6.5559,-6.5599,-6.5663,-6.5712,-6.5721,-6.5768,-6.5805,-6.5792,-6.5817,-6.5812,-6.5815,-6.5675,-6.5653,-6.5827,-6.5827,-6.5827,-6.5827,-6.5827,-6.5827,-6.5378,-6.5459,-6.5459,-6.5551,-6.5566,-6.5627,-6.5649,-6.5677,-6.5698,-6.5772,-6.5813,-6.582,-6.5839,-6.5888,-6.5932,-6.5933,-6.595,-6.5981,-6.5977,-6.5844,-6.5825,-6.5807,-6.5787,-6.5986,-6.5986,-6.6113,-6.6114,-6.6115]},{"header":{"parameterUnit":"m.s-1","parameterCategory":1,"la1":30.2991,"la2":30.254,"lo1":-89.0895,"lo2":-89.0444,"dy":0.0017,"dx":0.0017,"nx":28,"ny":28,"refTime":"2024-04-14T21:00:00:Z","depth":0,"parameterNumber":3,"parameterNumberName":"V-component_of_WINDS"},"data":[0,0,0,0,0,0,0,0,0,0,0,0,0,0,0,0,0,0,0,0,0,0,0,0,0,0,0,0,0,0,0,0,0,0,0,0,0,0,0,0,0,0,0,0,0,0,0,0,0,0,0,0,0,0,0,0,0,0,3.4693,3.4694,0,3.4748,3.4749,3.4749,3.4834,3.4835,3.4837,3.4838,3.4888,3.4888,3.4888,0,0,0,0,0,0,0,0,0,0,0,0,0,3.4658,3.4658,3.4693,3.4694,3.4695,3.4748,3.4749,3.4749,3.4834,3.4836,3.4837,3.4839,3.4888,3.4888,3.4888,0,0,0,0,0,0,0,0,0,0,0,0,0,3.4689,3.4658,3.4693,3.4743,3.4748,3.4748,3.4749,3.475,3.4833,3.4836,3.4838,3.484,3.4888,3.4888,3.4888,3.4841,0,0,3.4887,3.4887,0,0,0,0,0,0,0,0,3.4687,3.469,3.4735,3.474,3.4746,3.4787,3.4755,3.478,3.4833,3.4801,3.4839,3.4841,3.4852,3.4855,3.486,3.4843,3.4845,3.4887,3.4887,3.4887,3.4887,0,0,0,0,0,0,0,3.4685,3.4688,3.4715,3.4736,3.4742,3.4762,3.4769,3.476,3.4813,3.4804,3.481,3.4816,3.4855,3.486,3.4862,3.4846,3.4887,3.4887,3.4887,3.4887,3.4795,3.4793,0,0,0,0,0,0,3.4676,3.4686,3.4713,3.4717,3.4722,3.4761,3.4768,3.4771,3.4813,3.4822,3.4814,3.4819,3.4859,3.4862,3.4864,3.4813,3.4887,3.4887,3.4887,3.4798,3.4795,3.4792,0,0,0,0,0,0,3.4675,3.4678,3.4711,3.4703,3.4709,3.4759,3.4761,3.4771,3.4776,3.4821,3.483,3.4809,3.4861,3.4864,3.4847,3.4816,3.4887,3.4887,3.48,3.4797,3.4794,3.471,0,0,0,0,0,0,3.4673,3.4677,3.466,3.4702,3.4709,3.4694,3.4759,3.477,3.4776,3.4784,3.4819,3.4827,3.4863,3.4847,3.4847,3.4817,3.4887,3.4803,3.4799,3.4795,3.4716,3.4704,3.4694,0,0,0,0,0,3.4672,3.4633,3.4659,3.4662,3.469,3.4692,3.4696,3.474,3.4773,3.4757,3.4786,3.4826,3.4819,3.4844,3.4845,3.4815,3.4806,3.48,3.4795,3.4721,3.4706,3.4694,0,0,0,0,0,0,3.4583,3.4639,3.4669,3.4642,3.4662,3.4706,3.4687,3.4724,3.4733,3.474,3.4793,3.48,3.4776,3.4794,3.482,3.4772,3.4819,3.4813,3.4762,3.4749,3.4738,3.4734,3.4887,0,0,0,0,0,3.4561,3.456,3.4608,3.458,3.4589,3.4636,3.4638,3.4672,3.4693,3.4702,3.4729,3.4747,3.475,3.475,3.4755,3.4719,3.4728,3.4699,3.4688,3.4679,3.4673,3.4657,3.4645,3.4775,3.4775,3.4775,0,0,3.4514,3.4545,3.454,3.4563,3.4582,3.4579,3.4642,3.4635,3.4634,3.47,3.4687,3.4707,3.4731,3.4705,3.4695,3.4719,3.464,3.4672,3.4664,3.4664,3.465,3.4638,3.4627,3.4771,3.4772,3.4773,0,0,3.4428,3.445,3.4431,3.4449,3.4479,3.4511,3.4506,3.4545,3.4563,3.455,3.4601,3.4598,3.4601,3.4617,3.4625,3.4546,3.4584,3.4546,3.4489,3.4473,3.4463,3.4454,3.4427,3.4416,3.4541,3.454,3.454,0,3.4365,3.4364,3.4415,3.4406,3.4415,3.4478,3.4458,3.4473,3.4501,3.4505,3.4532,3.4539,3.4559,3.4538,3.4519,3.4524,3.4519,3.4542,3.446,3.4452,3.4445,3.4419,3.4409,3.4536,3.4536,3.4537,3.4537,0,3.4287,3.4285,3.4265,3.4294,3.4301,3.4286,3.4334,3.4334,3.4366,3.4395,3.4382,3.4409,3.4421,3.4419,3.4449,3.4402,3.4417,3.4451,3.4499,3.4427,3.4404,3.4394,3.4529,3.4531,3.4532,3.4533,0,0,3.4145,3.4204,3.4196,3.4211,3.4249,3.4248,3.4236,3.425,3.425,3.4267,3.4258,3.4261,3.4294,3.4303,3.4336,3.4321,3.4259,3.4358,3.436,3.434,3.421,3.4184,3.4172,3.4284,3.4283,3.4281,3.4208,0,3.4067,3.4052,3.4098,3.4071,3.4071,3.4131,3.4121,3.4142,3.4169,3.4172,3.4201,3.4202,3.4245,3.4252,3.424,3.4269,3.4234,3.4275,3.4276,3.4275,3.4269,3.416,3.4132,3.4062,3.42,3.4198,3.4197,0,3.3974,3.3989,3.3963,3.4004,3.4006,3.3996,3.4014,3.4016,3.4041,3.4062,3.4073,3.4113,3.4103,3.4149,3.4137,3.4164,3.4167,3.4182,3.418,3.4182,3.4232,3.4159,3.4041,3.403,3.4183,3.4184,3.4185,0,3.3874,3.3889,3.3876,3.3886,3.3933,3.3925,3.3944,3.3972,3.3979,3.3993,3.3998,3.401,3.4017,3.4025,3.4066,3.4096,3.4049,3.4098,3.4066,3.4065,3.4053,3.4053,3.3934,3.4054,3.4054,3.4054,3.4055,0,3.3783,3.3764,3.3832,3.3824,3.3805,3.3858,3.3837,3.3862,3.3887,3.3884,3.3936,3.3931,3.3986,3.3988,3.402,3.4005,3.4008,3.4024,3.4032,3.4019,3.4017,3.4022,3.4028,3.4052,3.4052,3.4053,3.4053,0,3.3669,3.3713,3.3703,3.375,3.3761,3.3745,3.3784,3.3778,3.3809,3.3805,3.3807,3.3854,3.3859,3.3901,3.3914,3.3936,3.3909,3.3927,3.3901,3.3907,3.3873,3.3875,3.3752,3.3739,3.3867,3.3866,3.3864,0,3.3608,3.3596,3.3642,3.3645,3.3662,3.3665,3.3673,3.3724,3.3729,3.3759,3.3749,3.3758,3.3769,3.3773,3.3808,3.3818,3.3837,3.3793,3.3839,3.3827,3.3837,3.3838,3.3837,3.3783,3.3782,3.378,3.3779,0,3.3495,3.3518,3.3528,3.3545,3.3553,3.3569,3.3587,3.3586,3.3643,3.3646,3.3653,3.3661,3.3676,3.3684,3.3702,3.372,3.3759,3.3765,3.3758,3.3745,3.3731,3.3739,3.3875,3.3767,3.3768,3.3769,3.377,3.377,3.3407,3.3399,3.3431,3.344,3.346,3.3477,3.3474,3.3505,3.3513,3.353,3.356,3.3562,3.3589,3.3617,3.3632,3.3634,3.3657,3.3646,3.3644,3.3641,3.3634,3.373,3.3637,3.3637,3.3638,3.3638,3.3638,0,3.3298,3.3322,3.3329,3.3355,3.3362,3.34,3.3423,3.3426,3.3429,3.3451,3.3461,3.3469,3.3478,3.3515,3.3527,3.3522,3.354,3.3524,3.3525,3.3528,3.3613,3.3618,3.3509,3.3509,3.3509,3.3509,3.3509,3.3509,3.3242,3.3232,3.3259,3.3259,3.3283,3.3288,3.3298,3.3313,3.3332,3.3339,3.3348,3.3372,3.34,3.3416,3.3425,3.3436,3.3438,3.3416,3.3432,3.351,3.3522,3.3534,3.3539,3.3416,3.3416,3.3348,3.3347,3.3347]}]]